Weather History for Tallahassee, FL

Change the Weather History Date:

Tuesday, July 1, 2014

  Actual Average Record
Temperature  
Mean Temperature 87 °F 82 °F  
Max Temperature 97 °F 92 °F 100 °F (1990)
Min Temperature 76 °F 71 °F 62 °F (1981)
Degree Days  
Heating Degree Days 0    
Month to date heating degree days 0  
Since 1 June heating degree days 0  
Since 1 July heating degree days 0  
Cooling Degree Days 22    
Month to date cooling degree days 22  
Year to date cooling degree days 1032  
Since 1 June cooling degree days 543  
Growing Degree Days 36 (Base 50)    
Moisture  
Dew Point 72 °F    
Average Humidity 65    
Maximum Humidity 88    
Minimum Humidity 42    
Precipitation  
Precipitation T in 0.23 in 2.83 in (1964)
Month to date precipitation T 0.23  
Year to date precipitation 36.49 29.62  
Sea Level Pressure  
Sea Level Pressure 29.95 in    
Wind  
Wind Speed 5 mph (NNW)    
Max Wind Speed 15 mph    
Max Gust Speed 22 mph    
Visibility 10 miles    
Events Fog    
T = Trace of Precipitation, MM = Missing Value Source: NWS Daily Summary

Daily Weather History Graph

Daily Weather History Graph

Search for Another Location

Airport:

Trip Planner

Search our weather history database for the weather conditions in past years. The results will help you decide how hot, cold, wet, or windy it might be!

Date:

Astronomy

Jul. 01, 2014 Rise Set
Actual Time 6:38 AM EDT 8:43 PM EDT
Civil Twilight 6:11 AM EDT 9:11 PM EDT
Nautical Twilight 5:38 AM EDT 9:44 PM EDT
Astronomical Twilight 5:02 AM EDT 10:20 PM EDT
Moon 10:28 AM EDT (7/1) 11:26 PM EDT (7/1)
Length of Visible Light 14h 59m
Length of Day
14h 04m
Waxing Crescent, 16% of the Moon is Illuminated
Jul 1
Waxing Crescent
Jul 5
First Quarter
Jul 12
Full
Jul 18
Last Quarter
Jul 26
New

Hourly Weather History & Observations

Time (EDT) Temp. Heat Index Dew Point Humidity Pressure Visibility Wind Dir Wind Speed Gust Speed Precip Events Conditions
12:53 AM 78.8 °F - 73.4 °F 83% 29.97 in 8.0 mi WNW 4.6 mph - N/A   Clear
1:53 AM 80.1 °F 85.1 °F 75.0 °F 85% 29.96 in 10.0 mi Calm Calm - N/A   Mostly Cloudy
2:53 AM 80.1 °F 84.5 °F 73.9 °F 81% 29.94 in 10.0 mi Calm Calm - N/A   Partly Cloudy
3:53 AM 79.0 °F - 73.0 °F 82% 29.93 in 10.0 mi Calm Calm - N/A   Partly Cloudy
4:53 AM 77.0 °F - 73.0 °F 88% 29.93 in 9.0 mi Calm Calm - N/A   Clear
5:53 AM 75.9 °F - 72.0 °F 87% 29.94 in 8.0 mi West 3.5 mph - N/A   Scattered Clouds
6:53 AM 75.9 °F - 72.0 °F 87% 29.96 in 7.0 mi West 3.5 mph - N/A Fog Patches of Fog
7:53 AM 80.1 °F 83.6 °F 71.1 °F 74% 29.97 in 10.0 mi NNW 3.5 mph - N/A   Mostly Cloudy
8:53 AM 82.0 °F 86.3 °F 71.1 °F 69% 29.98 in 10.0 mi North 4.6 mph - N/A   Mostly Cloudy
9:53 AM 86.0 °F 91.5 °F 71.1 °F 61% 29.99 in 10.0 mi NNW 9.2 mph - N/A   Mostly Cloudy
10:53 AM 89.1 °F 95.0 °F 71.1 °F 55% 29.99 in 10.0 mi North 9.2 mph - N/A   Mostly Cloudy
11:53 AM 91.9 °F 97.4 °F 70.0 °F 48% 29.99 in 10.0 mi North 10.4 mph 17.3 mph N/A   Mostly Cloudy
12:53 PM 93.0 °F 99.0 °F 70.0 °F 47% 29.99 in 10.0 mi North 12.7 mph - N/A   Scattered Clouds
1:53 PM 93.9 °F 100.3 °F 70.0 °F 46% 29.97 in 10.0 mi NE 12.7 mph 17.3 mph N/A   Mostly Cloudy
2:53 PM 95.0 °F 101.3 °F 70.0 °F 44% 29.95 in 10.0 mi NNE 10.4 mph - 0.00 in   Mostly Cloudy
3:53 PM 96.1 °F 101.6 °F 69.1 °F 41% 29.92 in 10.0 mi NNE 4.6 mph - N/A   Mostly Cloudy
4:53 PM 97.0 °F 102.8 °F 69.1 °F 40% 29.91 in 10.0 mi North 5.8 mph - N/A   Mostly Cloudy
5:53 PM 96.1 °F 101.6 °F 69.1 °F 41% 29.89 in 10.0 mi North 5.8 mph - N/A   Mostly Cloudy
6:53 PM 93.0 °F 99.0 °F 70.0 °F 47% 29.90 in 10.0 mi Calm Calm - N/A   Mostly Cloudy
7:53 PM 93.0 °F 99.0 °F 70.0 °F 47% 29.91 in 10.0 mi North 3.5 mph - N/A   Mostly Cloudy
8:53 PM 87.1 °F 95.4 °F 73.9 °F 65% 29.91 in 10.0 mi West 5.8 mph - N/A   Mostly Cloudy
9:53 PM 84.9 °F 92.1 °F 73.9 °F 69% 29.91 in 10.0 mi Calm Calm - N/A   Mostly Cloudy
10:53 PM 82.9 °F 90.2 °F 75.0 °F 77% 29.92 in 10.0 mi North 4.6 mph - N/A   Mostly Cloudy
11:53 PM 81.0 °F 86.7 °F 75.0 °F 82% 29.93 in 10.0 mi North - - N/A   Clear